[[{"header":{"parameterUnit":"m.s-1","parameterCategory":1,"la1":30.2991,"la2":30.254,"lo1":-89.0895,"lo2":-89.0444,"dy":0.0017,"dx":0.0017,"nx":28,"ny":28,"refTime":"2026-01-31T09:00:00:Z","depth":0,"parameterNumber":2,"parameterNumberName":"U-component_of_WINDS"},"data":[0,0,0,0,0,0,0,0,0,0,0,0,0,0,0,0,0,0,0,0,0,0,0,0,0,0,0,0,0,0,0,0,0,0,0,0,0,0,0,0,0,0,0,0,0,0,0,0,0,0,0,0,0,0,0,0,0,0,2.9639,2.964,0,2.9679,2.9679,2.968,2.9656,2.9655,2.9654,2.9653,2.969,2.9692,2.9694,0,0,0,0,0,0,0,0,0,0,0,0,0,2.9542,2.9544,2.9639,2.964,2.964,2.9679,2.9679,2.968,2.9656,2.9655,2.9653,2.9652,2.9689,2.9692,2.9694,0,0,0,0,0,0,0,0,0,0,0,0,0,2.9583,2.9545,2.9639,2.9633,2.9633,2.9679,2.9679,2.968,2.9656,2.9655,2.9653,2.9651,2.9689,2.9692,2.9695,2.9747,0,0,2.9704,2.9705,0,0,0,0,0,0,0,0,2.9581,2.9587,2.9634,2.9634,2.9634,2.9661,2.9659,2.9702,2.9657,2.9647,2.9653,2.9651,2.9681,2.9685,2.9696,2.9749,2.9751,2.9704,2.9706,2.9707,2.9708,0,0,0,0,0,0,0,2.9578,2.9585,2.9655,2.9634,2.9634,2.9628,2.9632,2.9667,2.9673,2.9648,2.9647,2.9652,2.9681,2.9693,2.9697,2.9751,2.9704,2.9707,2.9709,2.971,2.985,2.9852,0,0,0,0,0,0,2.9576,2.9583,2.9654,2.9656,2.9603,2.9631,2.9636,2.9654,2.9673,2.9674,2.9653,2.965,2.9689,2.9693,2.9698,2.9761,2.9707,2.971,2.9712,2.9848,2.9851,2.9853,0,0,0,0,0,0,2.9574,2.9582,2.9652,2.9619,2.9627,2.9635,2.9655,2.9655,2.9667,2.9677,2.9677,2.9664,2.9688,2.9694,2.9736,2.9762,2.9712,2.9714,2.9846,2.9849,2.9852,2.9888,0,0,0,0,0,0,2.9571,2.9582,2.9602,2.962,2.9629,2.9689,2.9657,2.9657,2.9673,2.967,2.9687,2.9689,2.9687,2.9731,2.9739,2.9765,2.9717,2.9844,2.9848,2.9851,2.9884,2.9892,2.9898,0,0,0,0,0,2.9568,2.961,2.9603,2.9612,2.9655,2.9691,2.9696,2.9694,2.9675,2.9696,2.9702,2.9688,2.9758,2.9736,2.9744,2.9772,2.9842,2.9846,2.9851,2.9881,2.989,2.9898,0,0,0,0,0,0,2.9594,2.9612,2.9605,2.9654,2.9672,2.9687,2.9712,2.9704,2.9726,2.9722,2.9717,2.9722,2.9765,2.9773,2.9747,2.9825,2.9797,2.9803,2.9818,2.9826,2.9833,2.983,2.9719,0,0,0,0,0,2.9606,2.9634,2.9648,2.969,2.97,2.9705,2.972,2.9718,2.9735,2.9742,2.9751,2.9768,2.9793,2.981,2.9835,2.9886,2.9889,2.9909,2.9916,2.9922,2.9927,2.9955,2.9964,2.9867,2.9867,2.9867,0,0,2.963,2.9643,2.9661,2.9696,2.9709,2.9738,2.9711,2.9743,2.9764,2.9746,2.9787,2.9794,2.9813,2.986,2.9881,2.9867,2.9955,2.9927,2.9932,2.9933,2.996,2.9969,2.9978,2.987,2.9869,2.9869,0,0,2.9688,2.9702,2.9739,2.9753,2.9774,2.9777,2.9786,2.9804,2.9808,2.9849,2.9836,2.9862,2.9906,2.992,2.9933,3.0,2.9988,3.0008,3.0042,3.007,3.0078,3.0084,3.0108,3.0116,3.0013,3.0013,3.0013,0,2.9715,2.976,2.9758,2.9792,2.9807,2.9794,2.9831,2.9845,2.9872,2.9883,2.9868,2.9925,2.9936,2.9986,3.0003,3.0014,3.0024,3.0005,3.0077,3.0084,3.009,3.0112,3.0121,3.0015,3.0015,3.0015,3.0014,0,2.9792,2.9823,2.985,2.9878,2.9897,2.9932,2.9936,2.9955,2.9951,2.9956,2.9998,3.0012,3.0039,3.0051,3.0047,3.0101,3.0092,3.0077,3.0049,3.0101,3.0122,3.0131,3.0018,3.0017,3.0017,3.0016,0,0,2.9866,2.9895,2.9905,2.9918,2.9941,2.9964,2.9999,3.0027,3.0044,3.0063,3.0092,3.0131,3.0118,3.0133,3.013,3.0154,3.0206,3.0136,3.0137,3.0149,3.0267,3.0278,3.0288,3.0199,3.0201,3.0202,3.0266,0,2.9926,2.9987,2.9988,3.0045,3.0073,3.0062,3.0093,3.011,3.0116,3.0141,3.0147,3.0175,3.0155,3.0164,3.0188,3.0195,3.023,3.0191,3.0225,3.0227,3.022,3.0299,3.031,3.0369,3.0274,3.0275,3.0276,0,3.0003,3.0027,3.0087,3.0107,3.0119,3.0146,3.0173,3.0197,3.0216,3.0219,3.0237,3.0231,3.0266,3.0239,3.0287,3.026,3.0275,3.0281,3.0283,3.0285,3.0254,3.0303,3.0388,3.0397,3.0289,3.0288,3.0287,0,3.0051,3.0099,3.0141,3.0152,3.0177,3.0196,3.0207,3.0225,3.0242,3.0265,3.0276,3.0303,3.0317,3.0337,3.0339,3.0318,3.0388,3.036,3.039,3.039,3.0404,3.0403,3.0492,3.0415,3.0415,3.0415,3.0414,0,3.0118,3.0155,3.0163,3.0188,3.023,3.023,3.0271,3.028,3.0297,3.0324,3.0316,3.0341,3.0342,3.0368,3.0369,3.0409,3.0416,3.0419,3.0418,3.0419,3.0419,3.0427,3.0423,3.0417,3.0417,3.0416,3.0416,0,3.0177,3.0185,3.023,3.025,3.0256,3.0285,3.0302,3.0327,3.0333,3.0367,3.0376,3.0385,3.0415,3.0419,3.0454,3.0455,3.0503,3.0499,3.0497,3.0496,3.0526,3.0523,3.0624,3.0637,3.0552,3.0552,3.0553,0,3.0219,3.0247,3.0271,3.029,3.0302,3.0331,3.0349,3.0351,3.037,3.0396,3.0417,3.0447,3.0471,3.052,3.053,3.0557,3.0553,3.0586,3.0556,3.0556,3.0553,3.0551,3.0553,3.0591,3.0592,3.0593,3.0594,0,3.0292,3.0294,3.0321,3.035,3.0372,3.0394,3.0415,3.043,3.0435,3.0457,3.0489,3.0508,3.0545,3.0574,3.0601,3.0612,3.0604,3.0603,3.0612,3.0612,3.0609,3.0611,3.0512,3.0601,3.06,3.0599,3.0599,3.0599,3.0343,3.0368,3.0389,3.042,3.0436,3.0457,3.0481,3.0491,3.0518,3.0549,3.0549,3.0584,3.0603,3.0639,3.0652,3.0679,3.0668,3.068,3.0683,3.0686,3.0689,3.0606,3.0684,3.0684,3.0683,3.0683,3.0683,0,3.0415,3.0429,3.0457,3.0487,3.0512,3.0504,3.0527,3.0547,3.0578,3.0598,3.0623,3.0659,3.0689,3.0701,3.073,3.0749,3.0746,3.0757,3.0755,3.0757,3.0697,3.0687,3.0759,3.0759,3.0759,3.0759,3.0759,3.0759,3.0455,3.0497,3.0503,3.0553,3.0566,3.0601,3.0616,3.0634,3.065,3.0692,3.0717,3.0726,3.0742,3.0773,3.0799,3.0802,3.0813,3.0825,3.0826,3.0769,3.0761,3.0754,3.0744,3.0827,3.0827,3.0884,3.0885,3.0885]},{"header":{"parameterUnit":"m.s-1","parameterCategory":1,"la1":30.2991,"la2":30.254,"lo1":-89.0895,"lo2":-89.0444,"dy":0.0017,"dx":0.0017,"nx":28,"ny":28,"refTime":"2026-01-31T09:00:00:Z","depth":0,"parameterNumber":3,"parameterNumberName":"V-component_of_WINDS"},"data":[0,0,0,0,0,0,0,0,0,0,0,0,0,0,0,0,0,0,0,0,0,0,0,0,0,0,0,0,0,0,0,0,0,0,0,0,0,0,0,0,0,0,0,0,0,0,0,0,0,0,0,0,0,0,0,0,0,0,-5.8747,-5.8749,0,-5.8928,-5.8931,-5.8933,-5.8928,-5.8925,-5.8923,-5.892,-5.9104,-5.9111,-5.9118,0,0,0,0,0,0,0,0,0,0,0,0,0,-5.8393,-5.84,-5.8746,-5.8749,-5.8751,-5.8928,-5.8931,-5.8933,-5.8928,-5.8925,-5.8922,-5.8919,-5.9102,-5.911,-5.9119,0,0,0,0,0,0,0,0,0,0,0,0,0,-5.8558,-5.8402,-5.8746,-5.877,-5.8774,-5.8928,-5.8931,-5.8934,-5.8929,-5.8925,-5.8921,-5.8918,-5.9099,-5.9109,-5.912,-5.9261,0,0,-5.9153,-5.9158,0,0,0,0,0,0,0,0,-5.8549,-5.8571,-5.8764,-5.8769,-5.8773,-5.8902,-5.8873,-5.9043,-5.893,-5.887,-5.892,-5.8916,-5.904,-5.9055,-5.9097,-5.927,-5.9278,-5.9154,-5.9161,-5.9165,-5.9168,0,0,0,0,0,0,0,-5.8537,-5.8563,-5.8818,-5.8767,-5.8773,-5.8771,-5.879,-5.8906,-5.8973,-5.8875,-5.8875,-5.8897,-5.9041,-5.9087,-5.9102,-5.928,-5.9154,-5.9163,-5.917,-5.9174,-5.9579,-5.9583,0,0,0,0,0,0,-5.8521,-5.8554,-5.8813,-5.8824,-5.865,-5.8781,-5.8802,-5.8864,-5.8972,-5.8985,-5.89,-5.8896,-5.907,-5.9089,-5.9108,-5.9281,-5.9165,-5.9175,-5.9182,-5.9575,-5.958,-5.9584,0,0,0,0,0,0,-5.8514,-5.8544,-5.8805,-5.8689,-5.8722,-5.8791,-5.886,-5.887,-5.8915,-5.8991,-5.9003,-5.8934,-5.9068,-5.9093,-5.9224,-5.9288,-5.918,-5.919,-5.957,-5.9576,-5.9582,-5.9628,0,0,0,0,0,0,-5.8503,-5.8542,-5.8596,-5.869,-5.8728,-5.8919,-5.8864,-5.8876,-5.8934,-5.8931,-5.9026,-5.9038,-5.9067,-5.9208,-5.9234,-5.93,-5.9198,-5.9564,-5.9573,-5.958,-5.9621,-5.9635,-5.9648,0,0,0,0,0,-5.8491,-5.8601,-5.8599,-5.863,-5.8798,-5.8922,-5.8944,-5.8976,-5.8939,-5.8995,-5.9044,-5.9035,-5.9276,-5.9221,-5.9251,-5.9321,-5.956,-5.957,-5.958,-5.9615,-5.9633,-5.9647,0,0,0,0,0,0,-5.8512,-5.8614,-5.8613,-5.8757,-5.8831,-5.8921,-5.8992,-5.8993,-5.9078,-5.9071,-5.9106,-5.9127,-5.9259,-5.9303,-5.924,-5.9464,-5.9414,-5.943,-5.9431,-5.9448,-5.946,-5.9447,-5.9207,0,0,0,0,0,-5.8533,-5.8626,-5.871,-5.8829,-5.8866,-5.8923,-5.8978,-5.8996,-5.9074,-5.9105,-5.9163,-5.9239,-5.9332,-5.9392,-5.9481,-5.9628,-5.9649,-5.9691,-5.9704,-5.9714,-5.9728,-5.981,-5.983,-5.9616,-5.9616,-5.9616,0,0,-5.8578,-5.8646,-5.8702,-5.8835,-5.8895,-5.899,-5.8949,-5.9051,-5.9122,-5.912,-5.9248,-5.9294,-5.938,-5.9519,-5.9584,-5.956,-5.9792,-5.9727,-5.9734,-5.9742,-5.9822,-5.9842,-5.986,-5.9623,-5.9621,-5.962,0,0,-5.8709,-5.8769,-5.8876,-5.8937,-5.9028,-5.9065,-5.9091,-5.9182,-5.9212,-5.9341,-5.9342,-5.9426,-5.9585,-5.9647,-5.9699,-5.9855,-5.9851,-5.9883,-5.9952,-6.0031,-6.0048,-6.0063,-6.0119,-6.0139,-5.9896,-5.9896,-5.9897,0,-5.8753,-5.8898,-5.893,-5.9034,-5.9092,-5.9096,-5.9204,-5.9261,-5.9377,-5.9417,-5.939,-5.959,-5.9648,-5.9803,-5.9841,-5.9883,-5.9913,-5.9873,-6.0043,-6.0058,-6.0073,-6.0127,-6.0148,-5.99,-5.9899,-5.9899,-5.9899,0,-5.8948,-5.9048,-5.9123,-5.9236,-5.9303,-5.9408,-5.9456,-5.952,-5.9532,-5.9572,-5.9704,-5.9774,-5.9878,-5.9916,-5.9929,-6.0073,-6.0056,-6.0035,-5.9985,-6.0096,-6.0148,-6.0169,-5.9905,-5.9903,-5.9902,-5.9902,0,0,-5.9097,-5.9227,-5.9254,-5.9306,-5.9408,-5.9486,-5.9591,-5.9694,-5.9749,-5.9828,-5.9918,-6.0052,-6.0035,-6.0094,-6.0113,-6.0183,-6.0303,-6.0154,-6.0156,-6.018,-6.0468,-6.0483,-6.0507,-6.0301,-6.0305,-6.0308,-6.0461,0,-5.9239,-5.9427,-5.946,-5.9625,-5.9718,-5.9723,-5.9815,-5.9887,-5.9927,-6.0012,-6.0055,-6.0151,-6.012,-6.0156,-6.0225,-6.0274,-6.0361,-6.0263,-6.0384,-6.0388,-6.0363,-6.0533,-6.055,-6.0691,-6.0481,-6.0484,-6.0487,0,-5.943,-5.9517,-5.9691,-5.9781,-5.9821,-5.9903,-6.0001,-6.0082,-6.0164,-6.0188,-6.0255,-6.0267,-6.0376,-6.0321,-6.0473,-6.0405,-6.0456,-6.0488,-6.0494,-6.0507,-6.0445,-6.0552,-6.0736,-6.0758,-6.0519,-6.0516,-6.0514,0,-5.9523,-5.9682,-5.9807,-5.9851,-5.9959,-6.0017,-6.0065,-6.0143,-6.0204,-6.0289,-6.0328,-6.0424,-6.0477,-6.0551,-6.0589,-6.0545,-6.0738,-6.0686,-6.0761,-6.0761,-6.0802,-6.0799,-6.0998,-6.0834,-6.0834,-6.0833,-6.0833,0,-5.9679,-5.9785,-5.985,-5.9927,-6.0047,-6.0083,-6.0201,-6.0247,-6.0317,-6.0403,-6.0413,-6.0493,-6.0537,-6.0624,-6.0654,-6.0775,-6.0799,-6.0821,-6.0828,-6.0821,-6.0818,-6.0856,-6.0847,-6.0839,-6.0838,-6.0837,-6.0836,0,-5.9802,-5.985,-5.9987,-6.0079,-6.0104,-6.0188,-6.0267,-6.0342,-6.0382,-6.0491,-6.0518,-6.0581,-6.0684,-6.0729,-6.0854,-6.0875,-6.1014,-6.1013,-6.0987,-6.0989,-6.1063,-6.1056,-6.1293,-6.1327,-6.114,-6.1141,-6.1143,0,-5.9899,-5.9981,-6.0082,-6.0141,-6.0191,-6.0285,-6.0347,-6.0386,-6.045,-6.0551,-6.0614,-6.0717,-6.0802,-6.0966,-6.1022,-6.1119,-6.1121,-6.1198,-6.1135,-6.1126,-6.1123,-6.1118,-6.1127,-6.1209,-6.1211,-6.1212,-6.1214,0,-6.0066,-6.0086,-6.0175,-6.0274,-6.0348,-6.0427,-6.0505,-6.0552,-6.0603,-6.0675,-6.0781,-6.0847,-6.0976,-6.1079,-6.1179,-6.1227,-6.123,-6.1233,-6.1256,-6.125,-6.1232,-6.1243,-6.1018,-6.1227,-6.1226,-6.1225,-6.1224,-6.1224,-6.0179,-6.0253,-6.0337,-6.0436,-6.0499,-6.0572,-6.0647,-6.0697,-6.0787,-6.0896,-6.0913,-6.1027,-6.1107,-6.1243,-6.1295,-6.1384,-6.1365,-6.1397,-6.1406,-6.1414,-6.1419,-6.1217,-6.1402,-6.1402,-6.1401,-6.1401,-6.1401,0,-6.0348,-6.0402,-6.0493,-6.0602,-6.0681,-6.0677,-6.0763,-6.0828,-6.0928,-6.1004,-6.1088,-6.121,-6.131,-6.1375,-6.1475,-6.1534,-6.1538,-6.1559,-6.1556,-6.1567,-6.1429,-6.14,-6.1555,-6.1555,-6.1555,-6.1555,-6.1555,-6.1555,-6.0444,-6.057,-6.06,-6.0757,-6.081,-6.0922,-6.0971,-6.1038,-6.1099,-6.1235,-6.1319,-6.1361,-6.1432,-6.1539,-6.163,-6.1647,-6.1684,-6.1707,-6.1722,-6.1592,-6.1576,-6.1561,-6.1534,-6.1714,-6.1714,-6.1852,-6.1854,-6.1855]}]]